Home > Weather > Dessau-Rosslau > Past weeks

Flag for Germany Weather for the Past 2 Weeks in Dessau-Rosslau, Saxony-Anhalt, Germany

Now
50 °F

Partly sunny.


Feels Like: 43 °F
Forecast: 44 / 50 °F
Wind: 22 mph from Southwest

Location: Leipzig-Schkeuditz

Current Time: Feb 8, 2016 at 4:19:27 PM

Latest Report: Feb 8, 2016 at 3:50 PM


Visibility: N/A

Pressure: 29.36 "Hg

Humidity: 71%

Dew point: 41 °F

Location of Dessau-RosslauLocation

Historic Weather in Dessau-Rosslau — Graph

°F

Dessau-Rosslau Temperature Yesterday

Maximum temperature yesterday: 50 °F (at 1:50 PM)
Minimum temperature yesterday: 37 °F (at 3:20 AM)
Average temperature yesterday: 45 °F

High & Low Weather Summary for the Past Weeks

 TemperatureHumidityPressure
High54 °F (Jan 26, 12:50 PM)100% (Jan 25, 12:20 AM)30.39 "Hg (Jan 25, 12:20 AM)
Low34 °F (Jan 28, 10:20 PM)53% (Feb 3, 3:50 PM)29.36 "Hg (Feb 8, 2:50 PM)
Average44 °F80%30.00 "Hg
* Reported Jan 24 3:20 PM — Feb 8 3:20 PM, Dessau-Rosslau, Weather by CustomWeather, © 2016

Note: Actual official high and low records may vary slightly from our data, if they occured in-between our weather recording intervals... More about our weather records

Advertising

Dessau-Rosslau Weather History for the Previous 24 Hours

 ConditionsComfort  
Time TempWeatherWind HumidityBarometerVisibility
3:20 PM
Mon, Feb 8
50 °FBroken clouds.24 mph71%29.36 "HgN/A
2:50 PM52 °FSprinkles. Partly sunny.21 mph62%29.36 "HgN/A
2:20 PM52 °FPartly sunny.20 mph62%29.39 "HgN/A
1:50 PM52 °FBroken clouds.30 mph62%29.39 "HgN/A
1:20 PM52 °FBroken clouds.28 mph62%29.39 "HgN/A
12:50 PM52 °FPartly sunny.25 mph62%29.39 "HgN/A
12:20 PM52 °FBroken clouds.26 mph62%29.42 "HgN/A
11:50 AM50 °FBroken clouds.21 mph62%29.42 "HgN/A
11:20 AM48 °FPartly sunny.22 mph66%29.45 "HgN/A
10:50 AM46 °FPartly sunny.25 mph66%29.45 "HgN/A
10:20 AM46 °FPartly sunny.23 mph66%29.47 "HgN/A
9:50 AM46 °FPartly sunny.28 mph66%29.47 "HgN/A
9:20 AM46 °FSunny.16 mph66%29.50 "Hg10 mi
8:50 AM45 °FSunny.14 mph66%29.50 "Hg10 mi
8:20 AM45 °FSunny.16 mph66%29.53 "Hg10 mi
7:50 AM45 °FSunny.17 mph66%29.53 "Hg10 mi
7:20 AM45 °FPassing clouds.20 mph66%29.53 "HgN/A
6:50 AM45 °FClear.24 mph66%29.53 "Hg10 mi
6:20 AM43 °FClear.15 mph71%29.56 "Hg10 mi
5:50 AM43 °FPassing clouds.17 mph71%29.59 "HgN/A
5:20 AM43 °FPassing clouds.17 mph71%29.62 "HgN/A
4:20 AM43 °FClear.15 mph71%29.65 "Hg10 mi
3:50 AM43 °FClear.13 mph76%29.65 "Hg10 mi
2:50 AM43 °FClear.12 mph76%29.68 "Hg10 mi
2:20 AM43 °FPassing clouds.10 mph76%29.68 "HgN/A
1:50 AM43 °FPassing clouds.10 mph76%29.68 "HgN/A
1:20 AM43 °FPassing clouds.10 mph76%29.71 "HgN/A
12:50 AM45 °FClear.12 mph71%29.71 "Hg10 mi
12:20 AM45 °FPassing clouds.15 mph71%29.71 "HgN/A
11:50 PM
Sun, Feb 7
45 °FClear.14 mph71%29.71 "Hg10 mi
11:20 PM46 °FClear.13 mph66%29.71 "Hg10 mi
10:50 PM46 °FClear.13 mph71%29.71 "Hg10 mi
10:20 PM46 °FClear.13 mph71%29.71 "Hg10 mi
9:50 PM46 °FClear.15 mph71%29.71 "Hg10 mi
9:20 PM46 °FClear.15 mph76%29.68 "Hg10 mi
8:50 PM46 °FPartly cloudy.15 mph76%29.68 "HgN/A
8:20 PM46 °FPartly cloudy.14 mph76%29.68 "HgN/A
7:50 PM46 °FPartly cloudy.9 mph76%29.65 "HgN/A
7:20 PM46 °FPassing clouds.8 mph71%29.65 "HgN/A
6:50 PM46 °FPassing clouds.9 mph71%29.62 "HgN/A
6:20 PM46 °FClear.9 mph71%29.62 "Hg10 mi
5:50 PM46 °FClear.9 mph71%29.62 "Hg10 mi
5:20 PM48 °FClear.8 mph62%29.62 "Hg10 mi
4:50 PM50 °FSunny.14 mph58%29.59 "Hg10 mi
4:20 PM48 °FSunny.12 mph62%29.59 "Hg10 mi
Weather by CustomWeather, © 2016

See weather overviewHow to use our weather pages